Harvey, ND

2:24 AM CDT on April 24, 2018 (GMT -0500)
Harvey

Weather History for K5H4 - November, 2012

Change the Weather History Date:

Friday, November 30, 2012

  Actual Average (KRUG) Record (KRUG)
Temperature  
Mean Temperature 24 °F -  
Max Temperature 32 °F 27 °F 50 °F (1969)
Min Temperature 15 °F 9 °F -18 °F (1955)
Degree Days  
Heating Degree Days 42    
Moisture  
Dew Point 22 °F    
Average Humidity 95    
Maximum Humidity 100    
Minimum Humidity 80    
Precipitation  
Precipitation 0.00 in - - ()
Sea Level Pressure  
Sea Level Pressure 29.91 in    
Wind  
Wind Speed 10 mph (SSE)    
Max Wind Speed 15 mph    
Max Gust Speed 22 mph    
Visibility 5 miles    
Events      
Averages and records for this station are not official NWS values.
T = Trace of Precipitation, MM = Missing Value Source: NWS Daily Summary

Daily Weather History Graph

Daily Weather History Graph

Search for Another Location

Airport or City:

Astronomy

Nov. 30, 2012 Rise Set
Actual Time 8:07 AM CST 4:49 PM CST
Civil Twilight 7:31 AM CST 5:25 PM CST
Nautical Twilight 6:53 AM CST 6:03 PM CST
Astronomical Twilight 6:15 AM CST 6:41 PM CST
Moon 6:47 PM CST (11/30) 9:39 AM CST (11/30)
Length of Visible Light 9h 53m
Length of Day
8h 42m
Waning Gibbous, 96% of the Moon is Illuminated
Nov 30
Waning Gibbous
Dec 6
Last Quarter
Dec 13
New
Dec 19
First Quarter
Dec 28
Full

Hourly Weather History & Observations

Time (CST) Temp. Windchill Dew Point Humidity Pressure Visibility Wind Dir Wind Speed Gust Speed Precip Events Conditions
12:15 AM 15.8 °F 2.7 °F 12.2 °F 86% 30.09 in 10.0 mi ESE 11.5 mph - N/A   Overcast
12:35 AM 15.8 °F 2.7 °F 12.2 °F 86% 30.09 in 10.0 mi SE 11.5 mph - N/A   Overcast
12:55 AM 15.8 °F 5.1 °F 12.2 °F 86% 30.10 in 10.0 mi SE 8.1 mph - N/A   Overcast
1:15 AM 15.8 °F 5.1 °F 12.2 °F 86% 30.09 in 10.0 mi SE 8.1 mph - N/A   Overcast
1:35 AM 15.8 °F 7.2 °F 14.0 °F 93% 30.09 in 10.0 mi SE 5.8 mph - N/A   Overcast
1:55 AM 15.8 °F 5.1 °F 14.0 °F 93% 30.10 in 10.0 mi SE 8.1 mph - N/A   Overcast
2:15 AM 15.8 °F 6.1 °F 14.0 °F 93% 30.09 in 10.0 mi SE 6.9 mph - N/A   Overcast
2:35 AM 15.8 °F 5.1 °F 14.0 °F 93% 30.08 in 7.0 mi SE 8.1 mph - N/A   Overcast
2:55 AM 15.8 °F 6.1 °F 14.0 °F 93% 30.08 in 10.0 mi ESE 6.9 mph - N/A   Overcast
3:15 AM 15.8 °F 6.1 °F 14.0 °F 93% 30.09 in 8.0 mi SE 6.9 mph - N/A   Overcast
3:35 AM 15.8 °F 4.2 °F 15.8 °F 100% 30.08 in 5.0 mi SE 9.2 mph - N/A   Overcast
3:55 AM 15.8 °F 3.4 °F 15.8 °F 100% 30.06 in 5.0 mi SE 10.4 mph - N/A   Overcast
4:15 AM 15.8 °F 3.4 °F 15.8 °F 100% 30.03 in 3.0 mi SE 10.4 mph - N/A   Overcast
4:35 AM 15.8 °F 2.7 °F 15.8 °F 100% 30.03 in 4.0 mi SE 11.5 mph - N/A   Overcast
4:55 AM 17.6 °F 7.3 °F 17.6 °F 100% 30.03 in 3.0 mi SE 8.1 mph - N/A   Overcast
5:15 AM 17.6 °F 7.3 °F 17.6 °F 100% 30.04 in 4.0 mi SE 8.1 mph - N/A   Overcast
5:35 AM 17.6 °F 10.7 °F 17.6 °F 100% 30.05 in 3.0 mi South 4.6 mph - N/A   Overcast
5:55 AM 17.6 °F 9.3 °F 17.6 °F 100% 30.04 in 1.8 mi SSE 5.8 mph - N/A   Overcast
6:15 AM 17.6 °F 8.2 °F 17.6 °F 100% 30.04 in 1.5 mi SE 6.9 mph - N/A   Overcast
6:35 AM 17.6 °F 5.7 °F 17.6 °F 100% 30.02 in 1.2 mi SE 10.4 mph - N/A   Overcast
6:55 AM 19.4 °F 8.6 °F 19.4 °F 100% 30.02 in 2.0 mi SSE 9.2 mph - N/A   Overcast
7:15 AM 19.4 °F 7.2 °F 19.4 °F 100% 30.03 in 5.0 mi South 11.5 mph - N/A   Overcast
7:35 AM 19.4 °F 6.0 °F 19.4 °F 100% 30.01 in 6.0 mi SSE 13.8 mph - N/A   Overcast
7:55 AM 19.4 °F 7.9 °F 19.4 °F 100% 30.00 in 5.0 mi SSE 10.4 mph 16.1 mph N/A   Overcast
8:15 AM 19.4 °F 7.2 °F 19.4 °F 100% 30.00 in 3.0 mi South 11.5 mph - N/A   Overcast
8:35 AM 19.4 °F 8.6 °F 19.4 °F 100% 30.00 in 2.5 mi South 9.2 mph - N/A   Overcast
8:55 AM 21.2 °F 9.5 °F 21.2 °F 100% 29.99 in 2.5 mi SSE 11.5 mph - N/A   Overcast
9:15 AM 21.2 °F 8.9 °F 21.2 °F 100% 29.99 in 2.5 mi South 12.7 mph 17.3 mph N/A   Overcast
9:35 AM 21.2 °F 8.9 °F 21.2 °F 100% 29.98 in 3.0 mi South 12.7 mph - N/A   Overcast
9:55 AM 23.0 °F 11.1 °F 23.0 °F 100% 29.98 in 3.0 mi South 12.7 mph - N/A   Overcast
10:15 AM 23.0 °F 12.4 °F 23.0 °F 100% 29.97 in 3.0 mi SSE 10.4 mph 17.3 mph N/A   Overcast
10:35 AM 23.0 °F 11.7 °F 23.0 °F 100% 29.96 in 2.5 mi SSE 11.5 mph 17.3 mph N/A   Overcast
10:55 AM 23.0 °F 10.6 °F 23.0 °F 100% 29.96 in 3.0 mi South 13.8 mph 19.6 mph N/A   Overcast
11:15 AM 23.0 °F 10.6 °F 23.0 °F 100% 29.96 in 3.0 mi SSE 13.8 mph - N/A   Overcast
11:35 AM 24.8 °F 12.9 °F 24.8 °F 100% 29.96 in 3.0 mi South 13.8 mph - N/A   Overcast
11:55 AM 24.8 °F 15.3 °F 24.8 °F 100% 29.96 in 3.0 mi SSE 9.2 mph - N/A   Overcast
12:15 PM 24.8 °F 14.0 °F 24.8 °F 100% 29.95 in 3.0 mi South 11.5 mph 17.3 mph N/A   Overcast
12:35 PM 24.8 °F 13.4 °F 24.8 °F 100% 29.94 in 4.0 mi South 12.7 mph 18.4 mph N/A   Overcast
12:55 PM 26.6 °F 15.2 °F 26.6 °F 100% 29.91 in 4.0 mi SSE 13.8 mph 18.4 mph N/A   Overcast
1:15 PM 26.6 °F 15.2 °F 26.6 °F 100% 29.90 in 4.0 mi SSE 13.8 mph 19.6 mph N/A   Overcast
1:35 PM 28.4 °F 17.0 °F 26.6 °F 93% 29.88 in 5.0 mi SSE 15.0 mph - N/A   Overcast
1:55 PM 28.4 °F 17.5 °F 26.6 °F 93% 29.87 in 5.0 mi SSE 13.8 mph 19.6 mph N/A   Mostly Cloudy
2:15 PM 30.2 °F 19.3 °F 26.6 °F 86% 29.86 in 5.0 mi SSE 15.0 mph 19.6 mph N/A   Scattered Clouds
2:35 PM 30.2 °F 20.2 °F 26.6 °F 86% 29.85 in 5.0 mi SSE 12.7 mph 16.1 mph N/A   Mostly Cloudy
2:55 PM 30.2 °F 19.8 °F 26.6 °F 86% 29.83 in 5.0 mi SSE 13.8 mph 20.7 mph N/A   Partly Cloudy
3:15 PM 30.2 °F 20.8 °F 26.6 °F 86% 29.82 in 5.0 mi SSE 11.5 mph 19.6 mph N/A   Clear
3:35 PM 30.2 °F 20.2 °F 26.6 °F 86% 29.81 in 6.0 mi SSE 12.7 mph - N/A   Clear
3:55 PM 32.0 °F 21.6 °F 26.6 °F 80% 29.80 in 6.0 mi SSE 15.0 mph - N/A   Clear
4:15 PM 32.0 °F 22.5 °F 26.6 °F 80% 29.80 in 6.0 mi SSE 12.7 mph 18.4 mph N/A   Clear
4:35 PM 30.2 °F 20.8 °F 26.6 °F 86% 29.80 in 6.0 mi SSE 11.5 mph 16.1 mph N/A   Clear
4:55 PM 30.2 °F 21.9 °F 26.6 °F 86% 29.79 in 6.0 mi SSE 9.2 mph - N/A   Clear
5:15 PM 28.4 °F 18.5 °F 26.6 °F 93% 29.78 in 6.0 mi SSE 11.5 mph 17.3 mph N/A   Clear
5:35 PM 28.4 °F 18.5 °F 26.6 °F 93% 29.77 in 6.0 mi SSE 11.5 mph - N/A   Clear
5:55 PM 28.4 °F 17.5 °F 26.6 °F 93% 29.76 in 7.0 mi SSE 13.8 mph - N/A   Clear
6:15 PM 28.4 °F 18.5 °F 26.6 °F 93% 29.76 in 7.0 mi SSE 11.5 mph - N/A   Clear
6:35 PM 28.4 °F 17.0 °F 26.6 °F 93% 29.75 in 6.0 mi SSE 15.0 mph - N/A   Clear
6:55 PM 28.4 °F 17.0 °F 26.6 °F 93% 29.75 in 5.0 mi SSE 15.0 mph 19.6 mph N/A   Clear
7:15 PM 28.4 °F 17.5 °F 26.6 °F 93% 29.73 in 5.0 mi SSE 13.8 mph 20.7 mph N/A   Clear
7:35 PM 28.4 °F 18.0 °F 26.6 °F 93% 29.73 in 5.0 mi SSE 12.7 mph 21.9 mph N/A   Clear
7:55 PM 28.4 °F 18.0 °F 26.6 °F 93% 29.73 in 5.0 mi SSE 12.7 mph 20.7 mph N/A   Clear
8:15 PM 28.4 °F 18.0 °F 26.6 °F 93% 29.73 in 5.0 mi SSE 12.7 mph 20.7 mph N/A   Clear
8:35 PM 28.4 °F 17.5 °F 26.6 °F 93% 29.73 in 5.0 mi South 13.8 mph 20.7 mph N/A   Clear
9:15 PM 28.4 °F 19.1 °F 28.4 °F 100% 29.71 in 5.0 mi SSE 10.4 mph - N/A   Clear
9:35 PM 28.4 °F 19.7 °F 28.4 °F 100% 29.71 in 5.0 mi SSE 9.2 mph - N/A   Clear
9:55 PM 28.4 °F 21.2 °F 28.4 °F 100% 29.71 in 5.0 mi SE 6.9 mph - N/A   Clear
10:15 PM 28.4 °F 20.4 °F 28.4 °F 100% 29.70 in 5.0 mi SE 8.1 mph - N/A   Clear
10:35 PM 28.4 °F 20.4 °F 28.4 °F 100% 29.69 in 5.0 mi SE 8.1 mph - N/A   Clear
10:55 PM 28.4 °F 20.4 °F 28.4 °F 100% 29.68 in 5.0 mi SE 8.1 mph - N/A   Clear
11:15 PM 28.4 °F 20.4 °F 28.4 °F 100% 29.68 in 5.0 mi SE 8.1 mph - N/A   Clear
11:35 PM 28.4 °F 20.4 °F 28.4 °F 100% 29.68 in 5.0 mi SE 8.1 mph - N/A   Clear
11:55 PM 28.4 °F 21.2 °F 28.4 °F 100% 29.67 in 5.0 mi SE 6.9 mph - N/A   Clear